Weather in Cherikov

Belarus     53˚34′10″N   31˚22′50″E
temp.,
°C
wind,
m/s
gust,
m/s
humid.,
%
clouds,
%
prec.,
mm/h
press.,
hPa
HPBL,
m
27 november, fri
fri2700:00sw4987100 0.0 1016436
03:00−1˚sw499296 0.0 1015384
06:00sw489095 0.0 1014455
09:00wsw598997 0.0 1012640
12:00+2˚sw5987100 0.0 1012491
15:00+3˚wsw51191100 0.2 1011647
18:00+3˚sw51195100 0.2 1011648
21:00+3˚wnw4897100 1.0 1012489
28 november, sat
sat2800:00wsw269433 0.1 1014152
03:00−1˚sw249518 0.1 1015103
06:00sw249748 0.0 1016214
09:00s129674 0.0 1017125
12:00+1˚sse3596100 0.1 1019323
15:00+1˚se3592100 0.1 1019380
18:00+1˚ese3597100 0.1 1020251
21:00+1˚ese2596100 0.1 1021281
29 november, sun
sun2900:00ese2597100 0.4 1021240
03:00e3596100 0.4 1022316
06:00−1˚ne2598100 0.3 1020258
09:00ne1295100 0.4 1021145
12:00+2˚nne1188100 0.0 1020221
15:00+1˚n1196100 0.1 1019137
18:00+1˚ssw1198100 0.2 101995
21:00s2397100 0.3 1020198
30 november, mon
mon3000:00−1˚sw2296100 0.0 102159
03:00−1˚s1297100 0.1 1022113
06:00−2˚s229852 0.0 102245
09:00−1˚sse249662 0.1 1024203
12:00+1˚ssw358098 0.1 1024587
15:00+1˚ssw237369 0.1 1026584
18:00−1˚sw128567 0.0 102621
21:00−1˚nw128783 0.0 1027118
1 december, tue
tue100:00−1˚nne1285100 0.0 1028126
03:00−1˚nne1286100 0.0 102898
06:00−1˚n2385100 0.0 1028168
09:00−1˚nne2485100 0.0 1028239
12:00nne357896 0.0 1029421
15:00nne369498 0.4 1028349
18:00ne3598100 1.1 1028219
21:00+1˚ese4797100 2.1 1029425